Location: Ostrava
(49.8330°N, 18.2830°E)
Time: 23:57:18
(UTC+02:00)

Vanguard 2 Rocket - Visible Passes

Search period start: 03 May 2015 00:00
Search period end: 13 May 2015 00:00
Orbit: 555 x 3332 km, 32.9° (Epoch: 03 May)

Date Brightness Start Highest point End Pass type
(mag) Time Alt. Az. Time Alt. Az. Time Alt. Az.
03 May 10.2 00:17:13 10° W 00:30:41 23° SW 00:32:44 22° SSW visible
03 May 9.8 21:01:10 10° WSW 21:14:47 41° S 21:30:50 13° SE visible
03 May 10.1 23:16:22 10° W 23:30:33 28° SSW 23:36:39 24° S visible
04 May 10.1 22:16:23 10° WSW 22:30:17 33° SSW 22:40:36 21° SSE visible
05 May 10.5 00:35:15 10° WSW 00:45:32 16° SW 00:46:25 16° SW visible
05 May 9.9 21:17:00 10° WSW 21:30:02 36° SSW 21:44:35 14° SE visible
05 May 10.3 23:33:18 10° WSW 23:45:32 21° SW 23:50:23 19° SSW visible
06 May 9.8 20:18:07 10° WSW 20:29:56 38° S 20:46:33 10° SE visible
06 May 10.2 22:32:47 10° WSW 22:45:24 26° SSW 22:54:25 18° S visible
07 May 10.1 21:33:08 10° WSW 21:45:17 30° SSW 21:58:29 14° SSE visible
07 May 10.6 23:51:54 10° WSW 00:00:32 14° SW 00:04:19 13° SSW visible
08 May 9.9 20:34:03 10° WSW 20:45:17 33° SSW 21:00:43 10° SE visible
08 May 10.4 22:50:02 10° WSW 23:00:33 19° SSW 23:08:25 14° S visible
09 May 10.3 21:49:45 10° WSW 22:00:33 23° SSW 22:12:34 11° SSE visible
10 May 10.1 20:50:21 10° WSW 21:00:39 27° SSW 21:14:14 10° SSE visible
10 May 10.7 23:09:48 10° WSW 23:15:46 12° SW 23:20:43 10° SSW visible
11 May 10.5 22:07:29 10° WSW 22:15:52 16° SSW 22:24:49 10° S visible
12 May 10.3 21:07:16 10° WSW 21:16:04 20° SSW 21:26:43 10° SSE visible
